Location: *
(37.5724°S, 58.0067°E)
Time: 12:12:10
(UTC+00:00)

Genesis I - Pass Details

Date: 21 January 2021
Orbit: 488 x 532 km, 64.5° (Epoch: 05 March)

Event Time Altitude Azimuth Distance (km) Brightness Sun altitude
Exits shadow 22:30:26 34° 212° (SSW) 889 4.5 -25.0°
Drops below altitude 10° 22:33:31 10° 166° (SSE) 1,779 6.8 -24.6°
Sets 22:35:50 0° 157° (SSE) 2,666 8.1 -24.4°
